{"data":{"norad_id":38250,"intl_designator":"2012-018A","name":"BEIDOU-2 M3 (C11)","alt_names":[],"object_type":"PAYLOAD","status":"ACTIVE","operator":null,"country":"PRC","launch_date":"2012-04-29","launch_site_code":"XICLF","launch_vehicle":null,"mission":null,"orbit_class":"UNKNOWN","rcs_meters":7.1433,"size_class":null,"mass_kg":null,"dimensions":null,"purposes":["nav"],"wikipedia_slug":null,"has_3d_model":false,"image_url":null,"decayed_at":null,"tle_current":{"epoch":"2026-09-18T01:58:39.513792Z","epoch_age_seconds":223402,"freshness":"STALE","line1":"1 38250U 12018A   26261.08240178 -.00000043  00000+0  00000+0 0  9993","line2":"2 38250  55.6740 301.7369 0023252 273.0823  86.7126  1.86230014 97679","mean_motion":1.86230014,"eccentricity":0.0023252,"inclination_deg":55.674,"raan_deg":301.7369,"arg_perigee_deg":273.0823,"mean_anomaly_deg":86.7126,"bstar":0,"rev_number":9767,"period_min":773.23733649078,"perigee_km":21463.262365179,"apogee_km":21593.037762541,"semimajor_km":27906.28706386,"source":"CELESTRAK","updated_at":"2026-09-20T09:00:46.672237Z"}}}